Regional Weather Roundup
Issued by NWS Albany, NY

Home | Current Version | Previous Version | Graphics & Text | Print | Product List | Glossary Off
Versions: 1 2 3 4 5 6 7 8 9 10 11 12 13 14 15 16 17 18 19 20 21 22 23 24 25 26 27 28 29 30 31 32 33 34 35 36 37 38 39 40 41 42 43 44 45 46 47 48 49 50

000
ASUS41 KALY 200710
RWRALY

NEW YORK STATE HOURLY WEATHER ROUNDUP
NATIONAL WEATHER SERVICE ALBANY NY
200 AM EST SAT DEC 20 2014

NOTE: "FAIR" INDICATES FEW OR NO CLOUDS BELOW 12,000 FEET WITH NO
SIGNIFICANT WEATHER AND/OR NO OBSTRUCTIONS TO VISIBILITY.

NYZ032-033-038>043-046>054-057>066-NYZ062>081-200800-
EAST


CITY           SKY/WX    TMP DP  RH WIND       PRES   REMARKS
ALBANY         CLOUDY    26  17  68 NW8       30.24R WCI  18
GLENS FALLS    CLOUDY    23  16  74 CALM      30.24R
POUGHKEEPSIE   CLOUDY    30  20  66 N5        30.21S WCI  25
NEWBURGH       CLOUDY    28  23  80 VRB6      30.19F WCI  22
MONTGOMERY     CLOUDY    28  22  78 NE6       30.18S WCI  22
WHITE PLAINS   CLEAR     27  19  72 N8        30.16S WCI  19
ISLIP          CLOUDY    31  22  69 N8        30.17S WCI  23
NEW YORK CITY  CLOUDY    32  22  66 N12       30.19S WCI  23
CENTRAL PARK   CLOUDY    32  20  61 NE8       30.21S WCI  25
$$

NYZ005>009-017-018-044>046-055-056-200800-
CENTRAL


CITY           SKY/WX    TMP DP  RH WIND       PRES   REMARKS
FULTON         CLOUDY    25  18  74 CALM      30.24S
SYRACUSE       MOCLDY    25  22  88 CALM      30.24R
ROME           CLOUDY    20  16  84 CALM      30.26R
ELMIRA         CLOUDY    29  22  75 N5        30.19F WCI  24
BINGHAMTON     CLOUDY    24  21  88 N8        30.13F WCI  15
MONTICELLO     CLOUDY    25  19  80 N9        30.14S WCI  15
$$

NYZ026>034-041>043-200800-
NORTH


CITY           SKY/WX    TMP DP  RH WIND       PRES   REMARKS
WATERTOWN      CLEAR     15   9  76 CALM      30.26S
FORT DRUM      NOT AVBL
MASSENA        PTCLDY     8   5  87 S3        30.29R
SARANAC LAKE   CLOUDY    13  32 100 CALM      30.14R
PLATTSBURGH    CLEAR     11   9  92 CALM      30.26R
$$

NYZ001>004-010>016-019>021-200800-
WEST


CITY           SKY/WX    TMP DP  RH WIND       PRES   REMARKS
NIAGARA FALLS  MOCLDY    24  21  88 CALM      30.22F
BUFFALO        MOCLDY    26  21  81 NE3       30.21F
DUNKIRK        CLOUDY    29  21  72 CALM      30.22F
JAMESTOWN      MOCLDY    21  18  86 SW3       30.16S
WELLSVILLE     CLOUDY    23  19  85 N6        30.13F WCI  16
ROCHESTER      CLOUDY    29  22  75 CALM      30.23F
PENN YAN       CLOUDY    28  22  78 NW5       30.20F WCI  23
$$

             KEY
       WCI = WIND CHILL INDEX
       VSB = VISIBILITY
       HX  = HEAT INDEX
$$



USA.gov is the U.S. government's official web portal to all federal, state and local government web resources and services.